Location: Melizzano
(41.1500°N, 14.5000°E)
Time: 21:32:45
(UTC+00:00)

USA 267 - Pass Details

Date: 11 May 2021
Orbit: 1102 x 1106 km, 123.0° (Epoch: 23 June)

Event Time Altitude Azimuth Distance (km) Brightness Sun altitude
Exits shadow 18:34:46 - 151° (SSE) 3,921 5.6 -5.0°
Rises 18:34:48 0° 151° (SSE) 3,905 5.6 -5.1°
Reaches altitude 10° 18:37:23 10° 157° (SSE) 2,951 5.0 -5.5°
Maximum altitude 18:43:37 47° 230° (SW) 1,420 4.1 -6.5°
Drops below altitude 10° 18:49:54 10° 303° (WNW) 2,967 7.3 -7.5°
Sets 18:52:31 0° 309° (NW) 3,929 8.5 -7.9°
